Time,TemperatureF,DewpointF,PressureIn,WindDirection,WindDirectionDegrees,WindSpeedMPH,WindSpeedGustMPH,Humidity,HourlyPrecipIn,Conditions,Clouds,dailyrainin,SoftwareType,DateUTC
2013-02-02 00:00:00,15.1,9.5,30.35,SSE,148,3.0,15.0,78,0.00,,,0.00,Wunderground v.1.15,2013-02-02 05:00:00,
2013-02-02 00:01:00,15.1,9.5,30.35,SSE,150,3.0,15.0,78,0.00,,,0.00,Wunderground v.1.15,2013-02-02 05:01:00,
2013-02-02 00:04:00,15.1,9.5,30.35,SE,143,4.0,15.0,78,0.00,,,0.00,Wunderground v.1.15,2013-02-02 05:04:00,
2013-02-02 00:05:00,15.2,9.6,30.35,SSE,149,4.0,15.0,78,0.00,,,0.00,Wunderground v.1.15,2013-02-02 05:05:00,
2013-02-02 00:11:00,15.2,9.9,30.35,SE,144,3.0,15.0,79,0.00,,,0.00,Wunderground v.1.15,2013-02-02 05:11:00,
2013-02-02 00:16:00,15.3,9.7,30.35,SSE,147,4.0,15.0,78,0.00,,,0.00,Wunderground v.1.15,2013-02-02 05:16:00,
2013-02-02 00:22:00,15.4,10.1,30.35,SSE,153,4.0,15.0,79,0.00,,,0.00,Wunderground v.1.15,2013-02-02 05:22:00,
2013-02-02 00:28:00,15.7,10.1,30.35,South,176,4.0,15.0,78,0.00,,,0.00,Wunderground v.1.15,2013-02-02 05:28:00,
2013-02-02 00:33:00,16.0,10.1,30.35,SSE,154,4.0,4.0,77,0.00,,,0.00,Wunderground v.1.15,2013-02-02 05:33:00,
2013-02-02 00:39:00,16.2,10.0,30.35,SSE,166,4.0,15.0,76,0.00,,,0.00,Wunderground v.1.15,2013-02-02 05:39:00,
2013-02-02 00:45:00,16.4,10.2,30.35,South,170,4.0,15.0,76,0.00,,,0.00,Wunderground v.1.15,2013-02-02 05:45:00,
2013-02-02 00:50:00,16.6,10.3,30.34,SSE,163,5.0,15.0,76,0.00,,,0.00,Wunderground v.1.15,2013-02-02 05:50:00,
2013-02-02 00:56:00,16.7,10.4,30.34,SSE,150,4.0,15.0,76,0.00,,,0.00,Wunderground v.1.15,2013-02-02 05:56:00,
2013-02-02 01:02:00,16.7,10.4,30.34,SSE,156,3.0,15.0,76,0.00,,,0.00,Wunderground v.1.15,2013-02-02 06:02:00,
2013-02-02 01:08:00,16.8,10.5,30.33,SE,143,3.0,15.0,76,0.00,,,0.00,Wunderground v.1.15,2013-02-02 06:08:00,
2013-02-02 01:14:00,17.0,10.7,30.33,South,179,4.0,15.0,76,0.00,,,0.00,Wunderground v.1.15,2013-02-02 06:14:00,
2013-02-02 01:20:00,17.1,10.8,30.32,SE,137,5.0,15.0,76,0.00,,,0.00,Wunderground v.1.15,2013-02-02 06:20:00,
2013-02-02 01:25:00,17.3,11.0,30.32,SSE,164,5.0,15.0,76,0.00,,,0.00,Wunderground v.1.15,2013-02-02 06:25:00,
2013-02-02 01:31:00,17.4,11.1,30.32,SE,141,4.0,15.0,76,0.00,,,0.00,Wunderground v.1.15,2013-02-02 06:31:00,
2013-02-02 01:36:00,17.5,11.2,30.31,SSE,162,4.0,15.0,76,0.00,,,0.00,Wunderground v.1.15,2013-02-02 06:36:00,
2013-02-02 01:42:00,17.7,11.4,30.32,SSE,165,4.0,15.0,76,0.00,,,0.00,Wunderground v.1.15,2013-02-02 06:42:00,
2013-02-02 01:48:00,18.0,11.4,30.32,SSE,158,4.0,15.0,75,0.00,,,0.00,Wunderground v.1.15,2013-02-02 06:48:00,
2013-02-02 01:54:00,18.3,11.7,30.31,SSE,160,4.0,15.0,75,0.00,,,0.00,Wunderground v.1.15,2013-02-02 06:54:00,
2013-02-02 02:00:00,18.6,11.7,30.31,South,191,5.0,15.0,74,0.00,,,0.00,Wunderground v.1.15,2013-02-02 07:00:00,
2013-02-02 02:06:00,18.8,11.6,30.31,SSE,156,5.0,15.0,73,0.00,,,0.00,Wunderground v.1.15,2013-02-02 07:06:00,
2013-02-02 02:12:00,19.1,11.9,30.31,SSE,152,5.0,15.0,73,0.00,,,0.00,Wunderground v.1.15,2013-02-02 07:12:00,
2013-02-02 02:18:00,19.5,12.3,30.32,SSW,195,6.0,15.0,73,0.00,,,0.00,Wunderground v.1.15,2013-02-02 07:18:00,
2013-02-02 02:24:00,19.5,12.6,30.31,SSW,201,6.0,15.0,74,0.00,,,0.00,Wunderground v.1.15,2013-02-02 07:24:00,
2013-02-02 02:30:00,19.7,13.1,30.31,SSE,167,6.0,15.0,75,0.00,,,0.00,Wunderground v.1.15,2013-02-02 07:30:00,
2013-02-02 02:36:00,19.6,13.3,30.31,SSE,156,6.0,15.0,76,0.00,,,0.00,Wunderground v.1.15,2013-02-02 07:36:00,
2013-02-02 02:42:00,19.5,13.5,30.30,SSE,149,4.0,15.0,77,0.00,,,0.00,Wunderground v.1.15,2013-02-02 07:42:00,
2013-02-02 02:47:00,19.4,13.7,30.30,South,173,5.0,15.0,78,0.00,,,0.00,Wunderground v.1.15,2013-02-02 07:47:00,
2013-02-02 02:53:00,19.1,14.2,30.30,SSW,204,5.0,15.0,81,0.00,,,0.00,Wunderground v.1.15,2013-02-02 07:53:00,
2013-02-02 02:58:00,18.9,14.3,30.30,South,191,5.0,15.0,82,0.00,,,0.00,Wunderground v.1.15,2013-02-02 07:58:00,
2013-02-02 03:06:00,18.6,14.6,30.30,South,173,6.0,15.0,84,0.00,,,0.00,Wunderground v.1.15,2013-02-02 08:06:00,
2013-02-02 03:12:00,18.5,14.7,30.29,SSE,160,5.0,15.0,85,0.00,,,0.00,Wunderground v.1.15,2013-02-02 08:12:00,
2013-02-02 03:18:00,18.4,14.9,30.29,SSE,158,5.0,15.0,86,0.00,,,0.00,Wunderground v.1.15,2013-02-02 08:18:00,
2013-02-02 03:24:00,18.4,14.9,30.29,SSE,163,4.0,15.0,86,0.00,,,0.00,Wunderground v.1.15,2013-02-02 08:24:00,
2013-02-02 03:30:00,18.5,15.3,30.28,South,181,4.0,15.0,87,0.00,,,0.00,Wunderground v.1.15,2013-02-02 08:30:00,
2013-02-02 03:36:00,18.5,15.3,30.28,SSW,213,4.0,15.0,87,0.00,,,0.00,Wunderground v.1.15,2013-02-02 08:36:00,
2013-02-02 03:41:00,18.5,15.5,30.28,South,170,3.0,15.0,88,0.00,,,0.00,Wunderground v.1.15,2013-02-02 08:41:00,
2013-02-02 03:47:00,18.6,15.6,30.28,SSE,164,3.0,15.0,88,0.00,,,0.00,Wunderground v.1.15,2013-02-02 08:47:00,
2013-02-02 03:53:00,18.7,15.7,30.28,SE,136,3.0,15.0,88,0.00,,,0.00,Wunderground v.1.15,2013-02-02 08:53:00,
2013-02-02 03:58:00,18.8,15.8,30.27,SSE,159,3.0,15.0,88,0.00,,,0.00,Wunderground v.1.15,2013-02-02 08:58:00,
2013-02-02 04:05:00,18.9,15.9,30.27,South,170,3.0,15.0,88,0.00,,,0.00,Wunderground v.1.15,2013-02-02 09:05:00,
2013-02-02 04:10:00,19.0,16.3,30.27,SSE,147,2.0,15.0,89,0.00,,,0.00,Wunderground v.1.15,2013-02-02 09:10:00,
2013-02-02 04:16:00,19.1,16.4,30.27,South,191,3.0,15.0,89,0.00,,,0.00,Wunderground v.1.15,2013-02-02 09:16:00,
2013-02-02 04:22:00,19.2,16.5,30.27,SSW,213,3.0,15.0,89,0.00,,,0.00,Wunderground v.1.15,2013-02-02 09:22:00,
2013-02-02 04:28:00,19.4,16.7,30.27,SSW,204,3.0,15.0,89,0.00,,,0.00,Wunderground v.1.15,2013-02-02 09:28:00,
2013-02-02 04:34:00,19.6,16.9,30.27,SSW,207,4.0,15.0,89,0.00,,,0.00,Wunderground v.1.15,2013-02-02 09:34:00,
2013-02-02 04:40:00,19.6,16.9,30.27,West,267,4.0,15.0,89,0.00,,,0.00,Wunderground v.1.15,2013-02-02 09:40:00,
2013-02-02 04:46:00,19.7,17.2,30.27,SW,235,2.0,15.0,90,0.00,,,0.00,Wunderground v.1.15,2013-02-02 09:46:00,
2013-02-02 04:52:00,19.7,17.2,30.28,WNW,286,1.0,15.0,90,0.00,,,0.00,Wunderground v.1.15,2013-02-02 09:52:00,
2013-02-02 04:57:00,19.6,17.1,30.27,WSW,249,2.0,15.0,90,0.00,,,0.00,Wunderground v.1.15,2013-02-02 09:57:00,
2013-02-02 05:03:00,19.7,17.2,30.27,SSW,199,2.0,15.0,90,0.00,,,0.00,Wunderground v.1.15,2013-02-02 10:03:00,
2013-02-02 05:09:00,19.7,17.2,30.25,SE,145,2.0,15.0,90,0.00,,,0.00,Wunderground v.1.15,2013-02-02 10:09:00,
2013-02-02 05:15:00,19.6,17.1,30.25,SE,138,4.0,15.0,90,0.00,,,0.00,Wunderground v.1.15,2013-02-02 10:15:00,
2013-02-02 05:21:00,19.4,17.2,30.25,SE,132,3.0,15.0,91,0.00,,,0.00,Wunderground v.1.15,2013-02-02 10:21:00,
2013-02-02 05:27:00,19.4,17.2,30.25,SE,143,3.0,15.0,91,0.00,,,0.00,Wunderground v.1.15,2013-02-02 10:27:00,
2013-02-02 05:33:00,19.4,17.2,30.24,SE,143,3.0,15.0,91,0.00,,,0.00,Wunderground v.1.15,2013-02-02 10:33:00,
2013-02-02 05:39:00,19.4,17.2,30.24,SE,133,3.0,15.0,91,0.00,,,0.00,Wunderground v.1.15,2013-02-02 10:39:00,
2013-02-02 05:45:00,19.4,17.2,30.24,SE,139,3.0,15.0,91,0.00,,,0.00,Wunderground v.1.15,2013-02-02 10:45:00,
2013-02-02 05:51:00,19.5,17.3,30.25,SSE,154,3.0,15.0,91,0.00,,,0.00,Wunderground v.1.15,2013-02-02 10:51:00,
2013-02-02 05:57:00,19.5,17.3,30.25,SSE,164,3.0,15.0,91,0.00,,,0.00,Wunderground v.1.15,2013-02-02 10:57:00,
2013-02-02 06:03:00,19.6,17.4,30.24,SSE,155,3.0,3.0,91,0.00,,,0.00,Wunderground v.1.15,2013-02-02 11:03:00,
2013-02-02 06:08:00,19.7,17.5,30.24,SSE,158,3.0,15.0,91,0.00,,,0.00,Wunderground v.1.15,2013-02-02 11:08:00,
2013-02-02 06:14:00,19.8,17.6,30.23,SSE,162,3.0,3.0,91,0.00,,,0.00,Wunderground v.1.15,2013-02-02 11:14:00,
2013-02-02 06:20:00,20.0,17.8,30.24,South,170,3.0,5.0,91,0.00,,,0.00,Wunderground v.1.15,2013-02-02 11:20:00,
2013-02-02 06:26:00,20.3,18.1,30.24,SSE,166,4.0,4.0,91,0.00,,,0.00,Wunderground v.1.15,2013-02-02 11:26:00,
2013-02-02 06:32:00,20.5,18.3,30.23,South,178,4.0,5.0,91,0.00,,,0.00,Wunderground v.1.15,2013-02-02 11:32:00,
2013-02-02 06:38:00,20.7,18.5,30.22,South,171,4.0,6.0,91,0.00,,,0.00,Wunderground v.1.15,2013-02-02 11:38:00,
2013-02-02 06:44:00,20.9,18.7,30.21,SSE,154,5.0,7.0,91,0.00,,,0.00,Wunderground v.1.15,2013-02-02 11:44:00,
2013-02-02 06:50:00,21.0,18.8,30.21,South,178,5.0,7.0,91,0.00,,,0.00,Wunderground v.1.15,2013-02-02 11:50:00,
2013-02-02 06:56:00,21.1,18.9,30.20,SSE,151,5.0,5.0,91,0.00,,,0.00,Wunderground v.1.15,2013-02-02 11:56:00,
2013-02-02 07:01:00,21.3,19.1,30.20,SE,143,6.0,8.0,91,0.00,,,0.00,Wunderground v.1.15,2013-02-02 12:01:00,
2013-02-02 07:07:00,21.4,19.2,30.19,SSE,161,6.0,7.0,91,0.00,,,0.00,Wunderground v.1.15,2013-02-02 12:07:00,
2013-02-02 07:13:00,21.6,19.4,30.19,SSE,154,6.0,6.0,91,0.00,,,0.00,Wunderground v.1.15,2013-02-02 12:13:00,
2013-02-02 07:19:00,21.6,19.4,30.18,SE,144,7.0,10.0,91,0.00,,,0.00,Wunderground v.1.15,2013-02-02 12:19:00,
2013-02-02 07:25:00,21.6,19.1,30.17,SSE,152,7.0,8.0,90,0.00,,,0.00,Wunderground v.1.15,2013-02-02 12:25:00,
2013-02-02 07:31:00,21.6,19.1,30.18,SSE,162,6.0,8.0,90,0.00,,,0.00,Wunderground v.1.15,2013-02-02 12:31:00,
2013-02-02 07:37:00,21.5,19.0,30.18,SSE,154,5.0,8.0,90,0.00,,,0.00,Wunderground v.1.15,2013-02-02 12:37:00,
2013-02-02 07:43:00,21.7,19.2,30.18,SSE,165,5.0,5.0,90,0.00,,,0.00,Wunderground v.1.15,2013-02-02 12:43:00,
2013-02-02 07:49:00,21.8,19.3,30.18,South,172,5.0,7.0,90,0.00,,,0.00,Wunderground v.1.15,2013-02-02 12:49:00,
2013-02-02 07:55:00,21.9,19.2,30.18,SSE,167,5.0,6.0,89,0.00,,,0.00,Wunderground v.1.15,2013-02-02 12:55:00,
2013-02-02 08:01:00,22.1,19.4,30.18,SSE,161,6.0,8.0,89,0.00,,,0.00,Wunderground v.1.15,2013-02-02 13:01:00,
2013-02-02 08:07:00,22.1,19.4,30.17,SSW,195,5.0,7.0,89,0.00,,,0.00,Wunderground v.1.15,2013-02-02 13:07:00,
2013-02-02 08:13:00,22.2,19.5,30.17,SSE,156,4.0,4.0,89,0.00,,,0.00,Wunderground v.1.15,2013-02-02 13:13:00,
2013-02-02 08:19:00,22.2,19.5,30.17,SSE,153,3.0,5.0,89,0.00,,,0.00,Wunderground v.1.15,2013-02-02 13:19:00,
2013-02-02 08:25:00,22.3,19.6,30.17,SE,137,4.0,7.0,89,0.00,,,0.00,Wunderground v.1.15,2013-02-02 13:25:00,
2013-02-02 08:31:00,22.6,19.8,30.17,SSE,168,5.0,10.0,89,0.00,,,0.00,Wunderground v.1.15,2013-02-02 13:31:00,
2013-02-02 08:37:00,22.7,19.7,30.17,South,186,4.0,6.0,88,0.00,,,0.00,Wunderground v.1.15,2013-02-02 13:37:00,
2013-02-02 08:42:00,22.8,19.8,30.17,South,187,4.0,7.0,88,0.00,,,0.00,Wunderground v.1.15,2013-02-02 13:42:00,
2013-02-02 08:47:00,22.9,19.9,30.16,South,183,4.0,5.0,88,0.00,,,0.00,Wunderground v.1.15,2013-02-02 13:47:00,
2013-02-02 08:53:00,22.9,19.9,30.16,SSE,162,4.0,4.0,88,0.00,,,0.00,Wunderground v.1.15,2013-02-02 13:53:00,
2013-02-02 08:59:00,23.0,19.7,30.16,South,185,4.0,6.0,87,0.00,,,0.00,Wunderground v.1.15,2013-02-02 13:59:00,
2013-02-02 09:04:00,23.0,20.0,30.16,South,188,4.0,5.0,88,0.00,,,0.00,Wunderground v.1.15,2013-02-02 14:04:00,
2013-02-02 09:10:00,23.2,19.9,30.16,South,169,4.0,6.0,87,0.00,,,0.00,Wunderground v.1.15,2013-02-02 14:10:00,
2013-02-02 09:16:00,23.3,20.0,30.16,South,176,4.0,6.0,87,0.00,,,0.00,Wunderground v.1.15,2013-02-02 14:16:00,
2013-02-02 09:22:00,23.6,20.3,30.16,South,176,4.0,6.0,87,0.00,,,0.00,Wunderground v.1.15,2013-02-02 14:22:00,
2013-02-02 09:28:00,24.0,20.4,30.16,SSW,201,4.0,7.0,86,0.00,,,0.00,Wunderground v.1.15,2013-02-02 14:28:00,
2013-02-02 09:34:00,24.2,20.3,30.16,South,191,5.0,5.0,85,0.00,,,0.00,Wunderground v.1.15,2013-02-02 14:34:00,
2013-02-02 09:39:00,24.4,20.5,30.15,SSW,204,6.0,7.0,85,0.00,,,0.00,Wunderground v.1.15,2013-02-02 14:39:00,
2013-02-02 09:45:00,24.7,20.6,30.15,SSW,202,6.0,6.0,84,0.00,,,0.00,Wunderground v.1.15,2013-02-02 14:45:00,
2013-02-02 09:51:00,25.1,20.7,30.15,SSW,211,6.0,10.0,83,0.00,,,0.00,Wunderground v.1.15,2013-02-02 14:51:00,
2013-02-02 09:57:00,25.5,20.8,30.15,SW,228,7.0,7.0,82,0.00,,,0.00,Wunderground v.1.15,2013-02-02 14:57:00,
2013-02-02 10:03:00,25.8,20.8,30.15,SSW,205,7.0,7.0,81,0.00,,,0.00,Wunderground v.1.15,2013-02-02 15:03:00,
2013-02-02 10:09:00,26.3,21.0,30.14,SSW,212,6.0,8.0,80,0.00,,,0.00,Wunderground v.1.15,2013-02-02 15:09:00,
2013-02-02 10:15:00,26.6,20.7,30.14,South,185,7.0,14.0,78,0.00,,,0.00,Wunderground v.1.15,2013-02-02 15:15:00,
2013-02-02 10:21:00,26.8,20.9,30.14,SW,235,9.0,14.0,78,0.00,,,0.00,Wunderground v.1.15,2013-02-02 15:21:00,
2013-02-02 10:27:00,27.2,20.6,30.14,SSW,205,9.0,11.0,76,0.00,,,0.00,Wunderground v.1.15,2013-02-02 15:27:00,
2013-02-02 10:33:00,27.6,20.4,30.13,SW,233,11.0,14.0,74,0.00,,,0.00,Wunderground v.1.15,2013-02-02 15:33:00,
2013-02-02 10:38:00,28.0,20.5,30.13,SSW,208,11.0,15.0,73,0.00,,,0.00,Wunderground v.1.15,2013-02-02 15:38:00,
2013-02-02 10:44:00,28.4,20.5,30.13,SW,218,10.0,12.0,72,0.00,,,0.00,Wunderground v.1.15,2013-02-02 15:44:00,
2013-02-02 10:50:00,28.8,20.2,30.13,SW,219,11.0,13.0,70,0.00,,,0.00,Wunderground v.1.15,2013-02-02 15:50:00,
2013-02-02 10:56:00,29.2,20.6,30.13,WSW,237,10.0,13.0,70,0.00,,,0.00,Wunderground v.1.15,2013-02-02 15:56:00,
2013-02-02 11:02:00,29.2,20.3,30.13,SW,227,11.0,20.0,69,0.00,,,0.00,Wunderground v.1.15,2013-02-02 16:02:00,
2013-02-02 11:08:00,29.3,20.4,30.13,SW,222,12.0,15.0,69,0.00,,,0.00,Wunderground v.1.15,2013-02-02 16:08:00,
2013-02-02 11:14:00,29.3,20.7,30.12,SW,219,13.0,14.0,70,0.00,,,0.00,Wunderground v.1.15,2013-02-02 16:14:00,
2013-02-02 11:20:00,29.3,20.7,30.12,SSW,193,12.0,15.0,70,0.00,,,0.00,Wunderground v.1.15,2013-02-02 16:20:00,
2013-02-02 11:26:00,29.3,20.7,30.12,SW,233,10.0,16.0,70,0.00,,,0.00,Wunderground v.1.15,2013-02-02 16:26:00,
2013-02-02 11:32:00,29.3,21.1,30.12,SW,217,11.0,16.0,71,0.00,,,0.00,Wunderground v.1.15,2013-02-02 16:32:00,
2013-02-02 11:38:00,29.4,21.2,30.12,SW,230,11.0,15.0,71,0.00,,,0.00,Wunderground v.1.15,2013-02-02 16:38:00,
2013-02-02 11:44:00,29.4,21.2,30.12,SW,224,12.0,16.0,71,0.00,,,0.00,Wunderground v.1.15,2013-02-02 16:44:00,
2013-02-02 11:50:00,29.6,21.3,30.12,WSW,254,12.0,17.0,71,0.00,,,0.00,Wunderground v.1.15,2013-02-02 16:50:00,
2013-02-02 11:56:00,29.6,21.3,30.11,SSW,202,12.0,15.0,71,0.00,,,0.00,Wunderground v.1.15,2013-02-02 16:56:00,
2013-02-02 12:02:00,29.4,21.5,30.11,SW,228,14.0,20.0,72,0.00,,,0.00,Wunderground v.1.15,2013-02-02 17:02:00,
2013-02-02 12:08:00,29.6,21.7,30.11,SW,231,11.0,13.0,72,0.00,,,0.00,Wunderground v.1.15,2013-02-02 17:08:00,
2013-02-02 12:14:00,29.4,22.1,30.11,SW,214,10.0,18.0,74,0.00,,,0.00,Wunderground v.1.15,2013-02-02 17:14:00,
2013-02-02 12:20:00,28.9,22.6,30.11,SW,220,13.0,18.0,77,0.00,,,0.00,Wunderground v.1.15,2013-02-02 17:20:00,
2013-02-02 12:25:00,28.6,22.9,30.10,WSW,252,12.0,14.0,79,0.00,,,0.00,Wunderground v.1.15,2013-02-02 17:25:00,
2013-02-02 12:31:00,28.5,23.1,30.10,SW,228,11.0,16.0,80,0.00,,,0.00,Wunderground v.1.15,2013-02-02 17:31:00,
2013-02-02 12:37:00,28.4,23.3,30.10,SW,223,10.0,11.0,81,0.00,,,0.00,Wunderground v.1.15,2013-02-02 17:37:00,
2013-02-02 12:43:00,28.3,23.8,30.09,SW,221,10.0,10.0,83,0.00,,,0.00,Wunderground v.1.15,2013-02-02 17:43:00,
2013-02-02 12:49:00,28.4,23.9,30.09,SSW,205,10.0,13.0,83,0.00,,,0.00,Wunderground v.1.15,2013-02-02 17:49:00,
2013-02-02 12:55:00,28.2,24.0,30.09,West,272,11.0,12.0,84,0.00,,,0.00,Wunderground v.1.15,2013-02-02 17:55:00,
2013-02-02 13:01:00,28.2,24.0,30.08,SSW,193,10.0,12.0,84,0.00,,,0.00,Wunderground v.1.15,2013-02-02 18:01:00,
2013-02-02 13:07:00,28.2,24.3,30.08,SSW,205,9.0,10.0,85,0.00,,,0.00,Wunderground v.1.15,2013-02-02 18:07:00,
2013-02-02 13:13:00,27.9,24.3,30.08,SW,235,9.0,12.0,86,0.00,,,0.00,Wunderground v.1.15,2013-02-02 18:13:00,
2013-02-02 13:19:00,28.0,24.6,30.08,SW,220,10.0,13.0,87,0.00,,,0.00,Wunderground v.1.15,2013-02-02 18:19:00,
2013-02-02 13:25:00,28.1,24.7,30.08,SW,226,9.0,9.0,87,0.00,,,0.00,Wunderground v.1.15,2013-02-02 18:25:00,
2013-02-02 13:31:00,28.2,24.8,30.07,SW,220,8.0,9.0,87,0.00,,,0.00,Wunderground v.1.15,2013-02-02 18:31:00,
2013-02-02 13:37:00,28.4,24.7,30.07,SW,230,6.0,10.0,86,0.00,,,0.00,Wunderground v.1.15,2013-02-02 18:37:00,
2013-02-02 13:43:00,28.4,24.7,30.07,SW,233,7.0,7.0,86,0.00,,,0.00,Wunderground v.1.15,2013-02-02 18:43:00,
2013-02-02 13:49:00,28.5,24.6,30.07,SSW,206,8.0,12.0,85,0.00,,,0.00,Wunderground v.1.15,2013-02-02 18:49:00,
2013-02-02 13:54:00,28.5,24.6,30.07,SW,229,8.0,10.0,85,0.00,,,0.00,Wunderground v.1.15,2013-02-02 18:54:00,
2013-02-02 13:59:00,28.6,24.7,30.07,SW,215,7.0,10.0,85,0.00,,,0.00,Wunderground v.1.15,2013-02-02 18:59:00,
2013-02-02 14:05:00,28.6,24.4,30.07,WSW,244,7.0,8.0,84,0.00,,,0.00,Wunderground v.1.15,2013-02-02 19:05:00,
2013-02-02 14:11:00,28.6,24.4,30.06,SW,224,8.0,10.0,84,0.00,,,0.00,Wunderground v.1.15,2013-02-02 19:11:00,
2013-02-02 14:17:00,28.7,24.5,30.06,SW,231,7.0,11.0,84,0.00,,,0.00,Wunderground v.1.15,2013-02-02 19:17:00,
2013-02-02 14:23:00,28.7,24.8,30.06,SSW,209,7.0,8.0,85,0.00,,,0.00,Wunderground v.1.15,2013-02-02 19:23:00,
2013-02-02 14:29:00,28.7,24.8,30.06,West,272,7.0,8.0,85,0.00,,,0.00,Wunderground v.1.15,2013-02-02 19:29:00,
2013-02-02 14:35:00,28.8,24.9,30.06,SW,216,6.0,7.0,85,0.00,,,0.00,Wunderground v.1.15,2013-02-02 19:35:00,
2013-02-02 14:41:00,28.9,24.7,30.06,WNW,290,6.0,8.0,84,0.00,,,0.00,Wunderground v.1.15,2013-02-02 19:41:00,
2013-02-02 14:47:00,28.9,24.7,30.06,WNW,303,6.0,8.0,84,0.00,,,0.00,Wunderground v.1.15,2013-02-02 19:47:00,
2013-02-02 14:53:00,29.0,24.5,30.06,West,272,6.0,6.0,83,0.00,,,0.00,Wunderground v.1.15,2013-02-02 19:53:00,
2013-02-02 14:59:00,29.0,24.8,30.07,NW,315,6.0,12.0,84,0.00,,,0.00,Wunderground v.1.15,2013-02-02 19:59:00,
2013-02-02 15:05:00,29.1,24.6,30.07,WNW,292,6.0,8.0,83,0.00,,,0.00,Wunderground v.1.15,2013-02-02 20:05:00,
2013-02-02 15:11:00,29.0,24.5,30.07,West,274,6.0,9.0,83,0.00,,,0.00,Wunderground v.1.15,2013-02-02 20:11:00,
2013-02-02 15:17:00,29.0,24.5,30.07,West,266,7.0,12.0,83,0.00,,,0.00,Wunderground v.1.15,2013-02-02 20:17:00,
2013-02-02 15:23:00,29.1,24.9,30.06,WNW,297,7.0,7.0,84,0.00,,,0.00,Wunderground v.1.15,2013-02-02 20:23:00,
2013-02-02 15:29:00,29.1,24.9,30.07,WNW,293,5.0,11.0,84,0.00,,,0.00,Wunderground v.1.15,2013-02-02 20:29:00,
2013-02-02 15:34:00,29.2,24.7,30.06,SW,214,5.0,7.0,83,0.00,,,0.00,Wunderground v.1.15,2013-02-02 20:34:00,
2013-02-02 15:40:00,29.1,24.9,30.06,NW,309,5.0,9.0,84,0.00,,,0.00,Wunderground v.1.15,2013-02-02 20:40:00,
2013-02-02 15:46:00,29.1,24.9,30.07,WSW,241,6.0,9.0,84,0.00,,,0.00,Wunderground v.1.15,2013-02-02 20:46:00,
2013-02-02 15:52:00,29.2,24.7,30.07,SSW,195,5.0,9.0,83,0.00,,,0.00,Wunderground v.1.15,2013-02-02 20:52:00,
2013-02-02 15:58:00,29.3,24.8,30.07,WNW,287,5.0,13.0,83,0.00,,,0.00,Wunderground v.1.15,2013-02-02 20:58:00,
2013-02-02 16:04:00,29.3,24.8,30.07,SW,234,6.0,7.0,83,0.00,,,0.00,Wunderground v.1.15,2013-02-02 21:04:00,
2013-02-02 16:10:00,29.3,24.8,30.07,WNW,283,5.0,7.0,83,0.00,,,0.00,Wunderground v.1.15,2013-02-02 21:10:00,
2013-02-02 16:16:00,29.4,24.9,30.07,SSW,208,4.0,9.0,83,0.00,,,0.00,Wunderground v.1.15,2013-02-02 21:16:00,
2013-02-02 16:22:00,29.4,24.9,30.07,SW,214,4.0,9.0,83,0.00,,,0.00,Wunderground v.1.15,2013-02-02 21:22:00,
2013-02-02 16:28:00,29.4,24.9,30.07,WNW,291,4.0,9.0,83,0.00,,,0.00,Wunderground v.1.15,2013-02-02 21:28:00,
2013-02-02 16:34:00,29.5,24.7,30.07,NW,313,5.0,6.0,82,0.00,,,0.00,Wunderground v.1.15,2013-02-02 21:34:00,
2013-02-02 16:40:00,29.5,24.7,30.07,NNW,330,6.0,9.0,82,0.00,,,0.00,Wunderground v.1.15,2013-02-02 21:40:00,
2013-02-02 16:46:00,29.6,24.8,30.07,NW,312,6.0,7.0,82,0.00,,,0.00,Wunderground v.1.15,2013-02-02 21:46:00,
2013-02-02 16:52:00,29.6,24.8,30.08,WNW,292,5.0,8.0,82,0.00,,,0.00,Wunderground v.1.15,2013-02-02 21:52:00,
2013-02-02 16:58:00,29.7,24.9,30.07,SSW,201,6.0,8.0,82,0.00,,,0.00,Wunderground v.1.15,2013-02-02 21:58:00,
2013-02-02 17:04:00,29.7,24.9,30.08,West,269,5.0,6.0,82,0.00,,,0.00,Wunderground v.1.15,2013-02-02 22:04:00,
2013-02-02 17:10:00,29.7,24.9,30.08,NW,305,4.0,6.0,82,0.00,,,0.00,Wunderground v.1.15,2013-02-02 22:10:00,
2013-02-02 17:15:00,29.7,24.9,30.08,WNW,285,4.0,6.0,82,0.00,,,0.00,Wunderground v.1.15,2013-02-02 22:15:00,
2013-02-02 17:21:00,29.7,24.9,30.08,West,278,4.0,6.0,82,0.00,,,0.00,Wunderground v.1.15,2013-02-02 22:21:00,
2013-02-02 17:27:00,29.8,25.0,30.08,WSW,249,4.0,7.0,82,0.00,,,0.00,Wunderground v.1.15,2013-02-02 22:27:00,
2013-02-02 17:33:00,29.9,24.8,30.08,WNW,303,5.0,6.0,81,0.00,,,0.00,Wunderground v.1.15,2013-02-02 22:33:00,
2013-02-02 17:39:00,29.8,24.7,30.08,WNW,303,6.0,6.0,81,0.00,,,0.00,Wunderground v.1.15,2013-02-02 22:39:00,
2013-02-02 17:45:00,29.9,24.8,30.08,WNW,298,6.0,6.0,81,0.00,,,0.00,Wunderground v.1.15,2013-02-02 22:45:00,
2013-02-02 17:51:00,29.9,24.8,30.08,WNW,291,7.0,11.0,81,0.00,,,0.00,Wunderground v.1.15,2013-02-02 22:51:00,
2013-02-02 17:57:00,29.9,24.8,30.08,WNW,303,8.0,11.0,81,0.00,,,0.00,Wunderground v.1.15,2013-02-02 22:57:00,
2013-02-02 18:02:00,29.8,24.7,30.08,West,264,8.0,11.0,81,0.00,,,0.00,Wunderground v.1.15,2013-02-02 23:02:00,
2013-02-02 18:08:00,29.8,24.7,30.09,WNW,293,8.0,12.0,81,0.00,,,0.00,Wunderground v.1.15,2013-02-02 23:08:00,
2013-02-02 18:14:00,29.7,24.6,30.09,WNW,301,10.0,13.0,81,0.00,,,0.00,Wunderground v.1.15,2013-02-02 23:14:00,
2013-02-02 18:20:00,29.7,24.6,30.09,WNW,301,10.0,13.0,81,0.00,,,0.00,Wunderground v.1.15,2013-02-02 23:20:00,
2013-02-02 18:26:00,29.7,24.3,30.08,NW,312,11.0,13.0,80,0.00,,,0.00,Wunderground v.1.15,2013-02-02 23:26:00,
2013-02-02 18:32:00,29.6,23.9,30.09,WNW,302,11.0,15.0,79,0.00,,,0.00,Wunderground v.1.15,2013-02-02 23:32:00,
2013-02-02 18:37:00,29.7,23.7,30.09,WNW,287,11.0,15.0,78,0.00,,,0.00,Wunderground v.1.15,2013-02-02 23:37:00,
2013-02-02 18:43:00,29.7,23.7,30.09,WNW,299,10.0,10.0,78,0.00,,,0.00,Wunderground v.1.15,2013-02-02 23:43:00,
2013-02-02 18:49:00,29.7,23.7,30.09,WNW,293,9.0,11.0,78,0.00,,,0.00,Wunderground v.1.15,2013-02-02 23:49:00,
2013-02-02 18:55:00,29.7,23.7,30.09,NW,318,11.0,12.0,78,0.00,,,0.00,Wunderground v.1.15,2013-02-02 23:55:00,
2013-02-02 19:01:00,29.6,23.6,30.09,WNW,303,11.0,13.0,78,0.00,,,0.00,Wunderground v.1.15,2013-02-03 00:01:00,
2013-02-02 19:07:00,29.6,23.6,30.09,WNW,295,10.0,11.0,78,0.00,,,0.00,Wunderground v.1.15,2013-02-03 00:07:00,
2013-02-02 19:13:00,29.5,23.5,30.09,NNW,328,8.0,10.0,78,0.00,,,0.00,Wunderground v.1.15,2013-02-03 00:13:00,
2013-02-02 19:19:00,29.5,23.5,30.09,WNW,293,8.0,11.0,78,0.00,,,0.00,Wunderground v.1.15,2013-02-03 00:19:00,
2013-02-02 19:25:00,29.5,23.5,30.09,WNW,293,8.0,8.0,78,0.00,,,0.00,Wunderground v.1.15,2013-02-03 00:25:00,
2013-02-02 19:31:00,29.4,23.4,30.09,WNW,282,7.0,8.0,78,0.00,,,0.00,Wunderground v.1.15,2013-02-03 00:31:00,
2013-02-02 19:37:00,29.4,23.1,30.09,NW,312,7.0,9.0,77,0.00,,,0.00,Wunderground v.1.15,2013-02-03 00:37:00,
2013-02-02 19:43:00,29.3,23.0,30.09,WNW,299,8.0,10.0,77,0.00,,,0.00,Wunderground v.1.15,2013-02-03 00:43:00,
2013-02-02 19:49:00,29.2,22.9,30.10,WNW,299,8.0,13.0,77,0.00,,,0.00,Wunderground v.1.15,2013-02-03 00:49:00,
2013-02-02 19:55:00,29.0,23.0,30.10,WNW,290,8.0,9.0,78,0.00,,,0.00,Wunderground v.1.15,2013-02-03 00:55:00,
2013-02-02 20:01:00,28.8,22.8,30.10,WNW,300,7.0,9.0,78,0.00,,,0.00,Wunderground v.1.15,2013-02-03 01:01:00,
2013-02-02 20:07:00,28.8,22.8,30.10,WNW,289,6.0,7.0,78,0.00,,,0.00,Wunderground v.1.15,2013-02-03 01:07:00,
2013-02-02 20:13:00,28.8,22.8,30.10,NW,306,6.0,9.0,78,0.00,,,0.00,Wunderground v.1.15,2013-02-03 01:13:00,
2013-02-02 20:19:00,28.8,22.5,30.10,WNW,297,7.0,10.0,77,0.00,,,0.00,Wunderground v.1.15,2013-02-03 01:19:00,
2013-02-02 20:25:00,28.8,22.5,30.10,WNW,299,9.0,9.0,77,0.00,,,0.00,Wunderground v.1.15,2013-02-03 01:25:00,
2013-02-02 20:30:00,28.8,22.5,30.10,WNW,297,9.0,17.0,77,0.00,,,0.00,Wunderground v.1.15,2013-02-03 01:30:00,
2013-02-02 20:35:00,28.7,22.4,30.10,NW,314,10.0,11.0,77,0.00,,,0.00,Wunderground v.1.15,2013-02-03 01:35:00,
2013-02-02 20:41:00,28.5,22.2,30.10,NW,325,9.0,11.0,77,0.00,,,0.00,Wunderground v.1.15,2013-02-03 01:41:00,
2013-02-02 20:47:00,28.3,22.0,30.10,NW,312,9.0,11.0,77,0.00,,,0.00,Wunderground v.1.15,2013-02-03 01:47:00,
2013-02-02 20:53:00,28.2,21.9,30.10,WNW,296,10.0,12.0,77,0.00,,,0.00,Wunderground v.1.15,2013-02-03 01:53:00,
2013-02-02 20:59:00,28.1,21.8,30.10,WNW,300,10.0,12.0,77,0.00,,,0.00,Wunderground v.1.15,2013-02-03 01:59:00,
2013-02-02 21:05:00,28.0,21.7,30.10,WNW,299,10.0,10.0,77,0.00,,,0.00,Wunderground v.1.15,2013-02-03 02:05:00,
2013-02-02 21:11:00,27.5,20.9,30.10,NW,307,13.0,22.0,76,0.00,,,0.00,Wunderground v.1.15,2013-02-03 02:11:00,
2013-02-02 21:17:00,26.9,20.7,30.11,WNW,299,15.0,16.0,77,0.00,,,0.00,Wunderground v.1.15,2013-02-03 02:17:00,
2013-02-02 21:22:00,26.5,20.6,30.11,WNW,297,14.0,20.0,78,0.00,,,0.00,Wunderground v.1.15,2013-02-03 02:22:00,
2013-02-02 21:28:00,26.0,20.4,30.11,WNW,303,15.0,20.0,79,0.00,,,0.00,Wunderground v.1.15,2013-02-03 02:28:00,
2013-02-02 21:34:00,25.6,20.0,30.11,WNW,301,16.0,19.0,79,0.00,,,0.00,Wunderground v.1.15,2013-02-03 02:34:00,
2013-02-02 21:40:00,25.4,19.8,30.11,WNW,288,15.0,19.0,79,0.00,,,0.00,Wunderground v.1.15,2013-02-03 02:40:00,
2013-02-02 21:46:00,25.2,19.6,30.11,NW,314,12.0,14.0,79,0.00,,,0.00,Wunderground v.1.15,2013-02-03 02:46:00,
2013-02-02 21:52:00,25.0,19.4,30.11,NW,309,9.0,14.0,79,0.00,,,0.00,Wunderground v.1.15,2013-02-03 02:52:00,
2013-02-02 21:58:00,24.8,19.2,30.11,WNW,296,10.0,14.0,79,0.00,,,0.00,Wunderground v.1.15,2013-02-03 02:58:00,
2013-02-02 22:04:00,24.7,19.1,30.12,WNW,302,10.0,12.0,79,0.00,,,0.00,Wunderground v.1.15,2013-02-03 03:04:00,
2013-02-02 22:10:00,24.5,18.9,30.12,WNW,295,10.0,15.0,79,0.00,,,0.00,Wunderground v.1.15,2013-02-03 03:10:00,
2013-02-02 22:16:00,24.1,18.2,30.11,NW,312,9.0,12.0,78,0.00,,,0.00,Wunderground v.1.15,2013-02-03 03:16:00,
2013-02-02 22:22:00,23.9,18.0,30.11,NW,308,9.0,12.0,78,0.00,,,0.00,Wunderground v.1.15,2013-02-03 03:22:00,
2013-02-02 22:28:00,23.5,17.6,30.11,WNW,296,11.0,13.0,78,0.00,,,0.00,Wunderground v.1.15,2013-02-03 03:28:00,
2013-02-02 22:34:00,23.1,17.3,30.12,WNW,300,12.0,15.0,78,0.00,,,0.00,Wunderground v.1.15,2013-02-03 03:34:00,
2013-02-02 22:40:00,22.9,17.1,30.12,WNW,293,12.0,16.0,78,0.00,,,0.00,Wunderground v.1.15,2013-02-03 03:40:00,
2013-02-02 22:46:00,22.7,16.9,30.12,NW,306,12.0,12.0,78,0.00,,,0.00,Wunderground v.1.15,2013-02-03 03:46:00,
2013-02-02 22:52:00,22.5,16.7,30.12,WNW,297,12.0,18.0,78,0.00,,,0.00,Wunderground v.1.15,2013-02-03 03:52:00,
2013-02-02 22:58:00,22.2,16.4,30.12,WNW,303,13.0,14.0,78,0.00,,,0.00,Wunderground v.1.15,2013-02-03 03:58:00,
2013-02-02 23:04:00,22.0,16.2,30.12,NW,311,13.0,13.0,78,0.00,,,0.00,Wunderground v.1.15,2013-02-03 04:04:00,
2013-02-02 23:10:00,21.5,15.4,30.13,NW,306,13.0,17.0,77,0.00,,,0.00,Wunderground v.1.15,2013-02-03 04:10:00,
2013-02-02 23:16:00,21.1,15.0,30.12,NW,318,14.0,16.0,77,0.00,,,0.00,Wunderground v.1.15,2013-02-03 04:16:00,
2013-02-02 23:21:00,20.9,14.8,30.12,NW,316,13.0,16.0,77,0.00,,,0.00,Wunderground v.1.15,2013-02-03 04:21:00,
2013-02-02 23:27:00,20.8,14.4,30.12,WNW,302,12.0,15.0,76,0.00,,,0.00,Wunderground v.1.15,2013-02-03 04:27:00,
2013-02-02 23:33:00,20.7,14.6,30.12,NW,305,11.0,11.0,77,0.00,,,0.00,Wunderground v.1.15,2013-02-03 04:33:00,
2013-02-02 23:39:00,20.8,14.7,30.13,WNW,297,10.0,11.0,77,0.00,,,0.00,Wunderground v.1.15,2013-02-03 04:39:00,
2013-02-02 23:44:00,20.7,14.6,30.13,WNW,303,9.0,13.0,77,0.00,,,0.00,Wunderground v.1.15,2013-02-03 04:44:00,
2013-02-02 23:50:00,20.6,14.5,30.13,WNW,297,9.0,15.0,77,0.00,,,0.00,Wunderground v.1.15,2013-02-03 04:50:00,
2013-02-02 23:56:00,20.5,14.1,30.13,WNW,303,11.0,11.0,76,0.00,,,0.00,Wunderground v.1.15,2013-02-03 04:56:00,